Time,TemperatureF,DewpointF,PressureIn,WindDirection,WindDirectionDegrees,WindSpeedMPH,WindSpeedGustMPH,Humidity,HourlyPrecipIn,Conditions,Clouds,dailyrainin,SolarRadiationWatts/m^2,SoftwareType,DateUTC
2013-01-27 00:01:00,22.0,21.0,-100.00,SW,224,0.0,1.0,94,0.00,,,0.09,0.000000,,2013-01-27 07:01:00,
2013-01-27 00:13:00,22.0,21.0,-100.00,SW,224,0.0,1.0,94,0.00,,,0.09,0.000000,,2013-01-27 07:13:00,
2013-01-27 00:32:00,22.0,21.0,-100.00,SSW,205,0.0,1.0,95,0.00,,,0.09,0.000000,,2013-01-27 07:32:00,
2013-01-27 00:42:00,22.0,21.0,-100.00,SSW,205,0.0,1.0,95,0.00,,,0.09,0.000000,,2013-01-27 07:42:00,
2013-01-27 00:52:00,22.0,21.0,-100.00,SSW,205,0.0,1.0,95,0.00,,,0.09,0.000000,,2013-01-27 07:52:00,
2013-01-27 01:01:00,22.0,21.0,-100.00,SSW,205,0.0,1.0,95,0.00,,,0.09,0.000000,,2013-01-27 08:01:00,
2013-01-27 01:11:00,22.0,21.0,-100.00,SSW,205,0.0,1.0,95,0.00,,,0.09,0.000000,,2013-01-27 08:11:00,
2013-01-27 01:32:00,22.0,21.0,-100.00,SW,231,1.0,4.0,95,0.00,,,0.09,0.000000,,2013-01-27 08:32:00,
2013-01-27 01:42:00,22.0,21.0,-100.00,SW,231,1.0,4.0,95,0.00,,,0.09,0.000000,,2013-01-27 08:42:00,
2013-01-27 01:52:00,22.0,21.0,-100.00,SW,231,1.0,4.0,95,0.00,,,0.09,0.000000,,2013-01-27 08:52:00,
2013-01-27 02:02:00,22.0,21.0,-100.00,SW,231,1.0,4.0,95,0.00,,,0.09,0.000000,,2013-01-27 09:02:00,
2013-01-27 02:11:00,22.0,21.0,-100.00,SW,231,1.0,4.0,95,0.00,,,0.09,0.000000,,2013-01-27 09:11:00,
2013-01-27 02:32:00,20.0,18.0,-100.00,SW,226,1.0,4.0,93,0.00,,,0.09,0.000000,,2013-01-27 09:32:00,
2013-01-27 02:42:00,20.0,18.0,-100.00,SW,226,1.0,4.0,93,0.00,,,0.09,0.000000,,2013-01-27 09:42:00,
2013-01-27 02:52:00,20.0,18.0,-100.00,SW,226,1.0,4.0,93,0.00,,,0.09,0.000000,,2013-01-27 09:52:00,
2013-01-27 03:01:00,20.0,18.0,-100.00,SW,226,1.0,4.0,93,0.00,,,0.09,0.000000,,2013-01-27 10:01:00,
2013-01-27 03:11:00,20.0,18.0,-100.00,SW,226,1.0,4.0,93,0.00,,,0.09,0.000000,,2013-01-27 10:11:00,
2013-01-27 03:32:00,19.0,17.0,-100.00,WSW,256,1.0,4.0,92,0.00,,,0.09,0.000000,,2013-01-27 10:32:00,
2013-01-27 03:42:00,19.0,17.0,-100.00,WSW,256,1.0,4.0,92,0.00,,,0.09,0.000000,,2013-01-27 10:42:00,
2013-01-27 03:52:00,19.0,17.0,-100.00,WSW,256,1.0,4.0,92,0.00,,,0.09,0.000000,,2013-01-27 10:52:00,
2013-01-27 04:01:00,19.0,17.0,-100.00,WSW,256,1.0,4.0,92,0.00,,,0.09,0.000000,,2013-01-27 11:01:00,
2013-01-27 04:11:00,19.0,17.0,-100.00,WSW,256,1.0,4.0,92,0.00,,,0.09,0.000000,,2013-01-27 11:11:00,
2013-01-27 04:32:00,19.0,17.0,-100.00,WSW,247,1.0,4.0,92,0.00,,,0.09,0.000000,,2013-01-27 11:32:00,
2013-01-27 04:42:00,19.0,17.0,-100.00,WSW,247,1.0,4.0,92,0.00,,,0.09,0.000000,,2013-01-27 11:42:00,
2013-01-27 04:52:00,19.0,17.0,-100.00,WSW,247,1.0,4.0,92,0.00,,,0.09,0.000000,,2013-01-27 11:52:00,
2013-01-27 05:02:00,19.0,17.0,-100.00,WSW,247,1.0,4.0,92,0.00,,,0.09,0.000000,,2013-01-27 12:02:00,
2013-01-27 05:11:00,19.0,17.0,-100.00,WSW,247,1.0,4.0,92,0.00,,,0.09,0.000000,,2013-01-27 12:11:00,
2013-01-27 05:33:00,19.0,17.0,-100.00,WSW,258,1.0,3.0,92,0.00,,,0.09,0.000000,,2013-01-27 12:33:00,
2013-01-27 05:42:00,19.0,17.0,-100.00,WSW,258,1.0,3.0,92,0.00,,,0.09,0.000000,,2013-01-27 12:42:00,
2013-01-27 05:52:00,19.0,17.0,-100.00,WSW,258,1.0,3.0,92,0.00,,,0.09,0.000000,,2013-01-27 12:52:00,
2013-01-27 06:02:00,19.0,17.0,-100.00,WSW,258,1.0,3.0,92,0.00,,,0.09,0.000000,,2013-01-27 13:02:00,
2013-01-27 06:11:00,19.0,17.0,-100.00,WSW,258,1.0,3.0,92,0.00,,,0.09,0.000000,,2013-01-27 13:11:00,
2013-01-27 06:32:00,17.0,15.0,-100.00,West,271,1.0,2.0,91,0.00,,,0.09,0.000000,,2013-01-27 13:32:00,
2013-01-27 06:42:00,17.0,15.0,-100.00,West,271,1.0,2.0,91,0.00,,,0.09,0.000000,,2013-01-27 13:42:00,
2013-01-27 06:52:00,17.0,15.0,-100.00,West,271,1.0,2.0,91,0.00,,,0.09,0.000000,,2013-01-27 13:52:00,
2013-01-27 07:01:00,17.0,15.0,-100.00,West,271,1.0,2.0,91,0.00,,,0.09,0.000000,,2013-01-27 14:01:00,
2013-01-27 07:11:00,17.0,15.0,-100.00,West,271,1.0,2.0,91,0.00,,,0.09,0.000000,,2013-01-27 14:11:00,
2013-01-27 07:53:00,16.0,14.0,-100.00,West,273,1.0,3.0,91,0.00,,,0.09,0.000000,,2013-01-27 14:53:00,
2013-01-27 08:01:00,16.0,14.0,-100.00,West,273,1.0,3.0,91,0.00,,,0.09,0.000000,,2013-01-27 15:01:00,
2013-01-27 08:11:00,16.0,14.0,-100.00,West,273,1.0,3.0,91,0.00,,,0.09,0.000000,,2013-01-27 15:11:00,
2013-01-27 08:32:00,17.0,15.0,-100.00,SSW,194,1.0,4.0,92,0.00,,,0.09,0.000000,,2013-01-27 15:32:00,
2013-01-27 08:42:00,17.0,15.0,-100.00,SSW,194,1.0,4.0,92,0.00,,,0.09,0.000000,,2013-01-27 15:42:00,
2013-01-27 08:52:00,17.0,15.0,-100.00,SSW,194,1.0,4.0,92,0.00,,,0.09,0.000000,,2013-01-27 15:52:00,
2013-01-27 09:01:00,17.0,15.0,-100.00,SSW,194,1.0,4.0,92,0.00,,,0.09,0.000000,,2013-01-27 16:01:00,
2013-01-27 09:11:00,17.0,15.0,-100.00,SSW,194,1.0,4.0,92,0.00,,,0.09,0.000000,,2013-01-27 16:11:00,
2013-01-27 09:33:00,17.0,15.0,-100.00,SW,235,1.0,3.0,90,0.00,,,0.09,0.000000,,2013-01-27 16:33:00,
2013-01-27 09:42:00,17.0,15.0,-100.00,SW,235,1.0,3.0,90,0.00,,,0.09,0.000000,,2013-01-27 16:42:00,
2013-01-27 09:53:00,17.0,15.0,-100.00,SW,235,1.0,3.0,90,0.00,,,0.09,0.000000,,2013-01-27 16:53:00,
2013-01-27 10:01:00,17.0,15.0,-100.00,SW,235,1.0,3.0,90,0.00,,,0.09,0.000000,,2013-01-27 17:01:00,
2013-01-27 10:11:00,17.0,15.0,-100.00,SW,235,1.0,3.0,90,0.00,,,0.09,0.000000,,2013-01-27 17:11:00,
2013-01-27 10:32:00,18.0,15.0,-100.00,WSW,251,1.0,2.0,88,0.00,,,0.09,8.000000,,2013-01-27 17:32:00,
2013-01-27 10:42:00,18.0,15.0,-100.00,WSW,251,1.0,2.0,88,0.00,,,0.09,8.000000,,2013-01-27 17:42:00,
2013-01-27 10:52:00,18.0,15.0,-100.00,WSW,251,1.0,2.0,88,0.00,,,0.09,8.000000,,2013-01-27 17:52:00,
2013-01-27 11:02:00,18.0,15.0,-100.00,WSW,251,1.0,2.0,88,0.00,,,0.09,8.000000,,2013-01-27 18:02:00,
2013-01-27 11:11:00,18.0,15.0,-100.00,WSW,251,1.0,2.0,88,0.00,,,0.09,8.000000,,2013-01-27 18:11:00,
2013-01-27 11:32:00,21.0,17.0,-100.00,SSW,200,1.0,3.0,84,0.00,,,0.08,41.000000,,2013-01-27 18:32:00,
2013-01-27 11:42:00,21.0,17.0,-100.00,SSW,200,1.0,3.0,84,0.00,,,0.08,41.000000,,2013-01-27 18:42:00,
2013-01-27 11:52:00,21.0,17.0,-100.00,SSW,200,1.0,3.0,84,0.00,,,0.08,41.000000,,2013-01-27 18:52:00,
2013-01-27 12:01:00,21.0,17.0,-100.00,SSW,200,1.0,3.0,84,0.00,,,0.08,41.000000,,2013-01-27 19:01:00,
2013-01-27 12:11:00,21.0,17.0,-100.00,SSW,200,1.0,3.0,84,0.00,,,0.08,41.000000,,2013-01-27 19:11:00,
2013-01-27 12:33:00,23.0,17.0,-100.00,SSW,206,1.0,4.0,78,0.01,,,0.01,45.000000,,2013-01-27 19:33:00,
2013-01-27 12:42:00,23.0,17.0,-100.00,SSW,206,1.0,4.0,78,0.01,,,0.01,45.000000,,2013-01-27 19:42:00,
2013-01-27 12:52:00,23.0,17.0,-100.00,SSW,206,1.0,4.0,78,0.01,,,0.01,45.000000,,2013-01-27 19:52:00,
2013-01-27 13:02:00,23.0,17.0,-100.00,SSW,206,1.0,4.0,78,0.01,,,0.01,45.000000,,2013-01-27 20:02:00,
2013-01-27 13:11:00,23.0,17.0,-100.00,SSW,206,1.0,4.0,78,0.01,,,0.01,45.000000,,2013-01-27 20:11:00,
2013-01-27 13:33:00,24.0,18.0,-100.00,SW,235,1.0,2.0,76,0.02,,,0.03,35.000000,,2013-01-27 20:33:00,
2013-01-27 13:42:00,24.0,18.0,-100.00,SW,235,1.0,2.0,76,0.02,,,0.03,35.000000,,2013-01-27 20:42:00,
2013-01-27 13:52:00,24.0,18.0,-100.00,SW,235,1.0,2.0,76,0.02,,,0.03,35.000000,,2013-01-27 20:52:00,
2013-01-27 14:01:00,24.0,18.0,-100.00,SW,235,1.0,2.0,76,0.02,,,0.03,35.000000,,2013-01-27 21:01:00,
2013-01-27 14:11:00,24.0,18.0,-100.00,SW,235,1.0,2.0,76,0.02,,,0.03,35.000000,,2013-01-27 21:11:00,
2013-01-27 14:33:00,23.0,17.0,-100.00,SW,221,1.0,3.0,76,0.00,,,0.03,33.000000,,2013-01-27 21:33:00,
2013-01-27 14:43:00,23.0,17.0,-100.00,SW,221,1.0,3.0,76,0.00,,,0.03,33.000000,,2013-01-27 21:43:00,
2013-01-27 14:52:00,23.0,17.0,-100.00,SW,221,1.0,3.0,76,0.00,,,0.03,33.000000,,2013-01-27 21:52:00,
2013-01-27 15:01:00,23.0,17.0,-100.00,SW,221,1.0,3.0,76,0.00,,,0.03,33.000000,,2013-01-27 22:01:00,
2013-01-27 15:11:00,23.0,17.0,-100.00,SW,221,1.0,3.0,76,0.00,,,0.03,33.000000,,2013-01-27 22:11:00,
2013-01-27 16:32:00,22.0,16.0,-100.00,SW,235,1.0,3.0,76,-99.99,,,0.07,47.000000,,2013-01-27 23:32:00,
2013-01-27 16:42:00,22.0,16.0,-100.00,SW,235,1.0,3.0,76,-99.99,,,0.07,47.000000,,2013-01-27 23:42:00,
2013-01-27 16:53:00,22.0,16.0,-100.00,SW,235,1.0,3.0,76,-99.99,,,0.07,47.000000,,2013-01-27 23:53:00,
2013-01-27 17:01:00,22.0,16.0,-100.00,SW,235,1.0,3.0,76,-99.99,,,0.07,47.000000,,2013-01-28 00:01:00,
2013-01-27 17:11:00,22.0,16.0,-100.00,SW,235,1.0,3.0,76,-99.99,,,0.07,47.000000,,2013-01-28 00:11:00,
2013-01-27 17:33:00,24.0,16.0,-100.00,SW,223,1.0,7.0,70,0.00,,,0.07,22.000000,,2013-01-28 00:33:00,
2013-01-27 17:42:00,24.0,16.0,-100.00,SW,223,1.0,7.0,70,0.00,,,0.07,22.000000,,2013-01-28 00:42:00,
2013-01-27 17:52:00,24.0,16.0,-100.00,SW,223,1.0,7.0,70,0.00,,,0.07,22.000000,,2013-01-28 00:52:00,
2013-01-27 18:01:00,24.0,16.0,-100.00,SW,223,1.0,7.0,70,0.00,,,0.07,22.000000,,2013-01-28 01:01:00,
2013-01-27 18:11:00,24.0,16.0,-100.00,SW,223,1.0,7.0,70,0.00,,,0.07,22.000000,,2013-01-28 01:11:00,
2013-01-27 18:33:00,16.0,13.0,-100.00,West,264,1.0,2.0,88,0.00,,,0.07,12.000000,,2013-01-28 01:33:00,
2013-01-27 18:42:00,16.0,13.0,-100.00,West,264,1.0,2.0,88,0.00,,,0.07,12.000000,,2013-01-28 01:42:00,
2013-01-27 18:52:00,16.0,13.0,-100.00,West,264,1.0,2.0,88,0.00,,,0.07,12.000000,,2013-01-28 01:52:00,
2013-01-27 19:01:00,16.0,13.0,-100.00,West,264,1.0,2.0,88,0.00,,,0.07,12.000000,,2013-01-28 02:01:00,
2013-01-27 19:11:00,16.0,13.0,-100.00,West,264,1.0,2.0,88,0.00,,,0.07,12.000000,,2013-01-28 02:11:00,
2013-01-27 19:42:00,16.0,14.0,-100.00,West,262,1.0,2.0,91,0.00,,,0.07,0.000000,,2013-01-28 02:42:00,
2013-01-27 19:52:00,16.0,14.0,-100.00,West,262,1.0,2.0,91,0.00,,,0.07,0.000000,,2013-01-28 02:52:00,
2013-01-27 20:02:00,16.0,14.0,-100.00,West,262,1.0,2.0,91,0.00,,,0.07,0.000000,,2013-01-28 03:02:00,
2013-01-27 20:11:00,16.0,14.0,-100.00,West,262,1.0,2.0,91,0.00,,,0.07,0.000000,,2013-01-28 03:11:00,
2013-01-27 20:32:00,16.0,14.0,-100.00,SW,234,1.0,2.0,91,0.00,,,0.07,0.000000,,2013-01-28 03:32:00,
2013-01-27 20:42:00,16.0,14.0,-100.00,SW,234,1.0,2.0,91,0.00,,,0.07,0.000000,,2013-01-28 03:42:00,
2013-01-27 20:52:00,16.0,14.0,-100.00,SW,234,1.0,2.0,91,0.00,,,0.07,0.000000,,2013-01-28 03:52:00,
2013-01-27 21:01:00,16.0,14.0,-100.00,SW,234,1.0,2.0,91,0.00,,,0.07,0.000000,,2013-01-28 04:01:00,
2013-01-27 21:11:00,16.0,14.0,-100.00,SW,234,1.0,2.0,91,0.00,,,0.07,0.000000,,2013-01-28 04:11:00,
2013-01-27 21:32:00,16.0,14.0,-100.00,SW,221,1.0,2.0,91,0.00,,,0.07,0.000000,,2013-01-28 04:32:00,
2013-01-27 21:42:00,16.0,14.0,-100.00,SW,221,1.0,2.0,91,0.00,,,0.07,0.000000,,2013-01-28 04:42:00,
2013-01-27 21:52:00,16.0,14.0,-100.00,SW,221,1.0,2.0,91,0.00,,,0.07,0.000000,,2013-01-28 04:52:00,
2013-01-27 22:03:00,16.0,14.0,-100.00,SW,221,1.0,2.0,91,0.00,,,0.07,0.000000,,2013-01-28 05:03:00,
2013-01-27 22:11:00,16.0,14.0,-100.00,SW,221,1.0,2.0,91,0.00,,,0.07,0.000000,,2013-01-28 05:11:00,
2013-01-27 22:32:00,15.0,12.0,-100.00,SW,232,1.0,2.0,89,0.00,,,0.07,0.000000,,2013-01-28 05:32:00,
2013-01-27 22:42:00,15.0,12.0,-100.00,SW,232,1.0,2.0,89,0.00,,,0.07,0.000000,,2013-01-28 05:42:00,
2013-01-27 22:52:00,15.0,12.0,-100.00,SW,232,1.0,2.0,89,0.00,,,0.07,0.000000,,2013-01-28 05:52:00,
2013-01-27 23:02:00,15.0,12.0,-100.00,SW,232,1.0,2.0,89,0.00,,,0.07,0.000000,,2013-01-28 06:02:00,
2013-01-27 23:11:00,15.0,12.0,-100.00,SW,232,1.0,2.0,89,0.00,,,0.07,0.000000,,2013-01-28 06:11:00,
2013-01-27 23:32:00,14.0,12.0,-100.00,West,280,1.0,2.0,90,0.00,,,-99.99,0.000000,,2013-01-28 06:32:00,
2013-01-27 23:42:00,14.0,12.0,-100.00,West,280,1.0,2.0,90,0.00,,,-99.99,0.000000,,2013-01-28 06:42:00,
2013-01-27 23:52:00,14.0,12.0,-100.00,West,280,1.0,2.0,90,0.00,,,-99.99,0.000000,,2013-01-28 06:52:00,